Time,TemperatureF,DewpointF,PressureIn,WindDirection,WindDirectionDegrees,WindSpeedMPH,WindSpeedGustMPH,Humidity,HourlyPrecipIn,Conditions,Clouds,dailyrainin,SolarRadiationWatts/m^2,SoftwareType,DateUTC
2013-01-10 00:02:00,24.0,16.0,30.13,South,173,7.0,13.0,70,0.00,,,0.00,1.000000,,2013-01-10 06:02:00,
2013-01-10 00:32:00,24.0,16.0,30.11,SSE,159,6.0,13.0,72,0.00,,,0.00,1.000000,,2013-01-10 06:32:00,
2013-01-10 00:42:00,24.0,16.0,30.11,SSE,159,6.0,13.0,72,0.00,,,0.00,1.000000,,2013-01-10 06:42:00,
2013-01-10 00:52:00,24.0,16.0,30.11,SSE,159,6.0,13.0,72,0.00,,,0.00,1.000000,,2013-01-10 06:52:00,
2013-01-10 01:02:00,24.0,16.0,30.11,SSE,159,6.0,13.0,72,0.00,,,0.00,1.000000,,2013-01-10 07:02:00,
2013-01-10 02:33:00,26.0,19.0,30.10,South,177,7.0,14.0,75,-99.99,,,0.00,1.000000,,2013-01-10 08:33:00,
2013-01-10 02:42:00,26.0,19.0,30.10,South,177,7.0,14.0,75,-99.99,,,0.00,1.000000,,2013-01-10 08:42:00,
2013-01-10 02:53:00,26.0,19.0,30.10,South,177,7.0,14.0,75,-99.99,,,0.00,1.000000,,2013-01-10 08:53:00,
2013-01-10 03:02:00,26.0,19.0,30.10,South,177,7.0,14.0,75,-99.99,,,0.00,1.000000,,2013-01-10 09:02:00,
2013-01-10 03:32:00,26.0,20.0,30.07,South,189,7.0,14.0,78,0.00,,,0.00,1.000000,,2013-01-10 09:32:00,
2013-01-10 03:43:00,26.0,20.0,30.07,South,189,7.0,14.0,78,0.00,,,0.00,1.000000,,2013-01-10 09:43:00,
2013-01-10 03:52:00,26.0,20.0,30.07,South,189,7.0,14.0,78,0.00,,,0.00,1.000000,,2013-01-10 09:52:00,
2013-01-10 04:03:00,26.0,20.0,30.07,South,189,7.0,14.0,78,0.00,,,0.00,1.000000,,2013-01-10 10:03:00,
2013-01-10 04:33:00,28.0,22.0,30.05,South,180,7.0,12.0,78,0.00,,,0.00,1.000000,,2013-01-10 10:33:00,
2013-01-10 04:42:00,28.0,22.0,30.05,South,180,7.0,12.0,78,0.00,,,0.00,1.000000,,2013-01-10 10:42:00,
2013-01-10 04:52:00,28.0,22.0,30.05,South,180,7.0,12.0,78,0.00,,,0.00,1.000000,,2013-01-10 10:52:00,
2013-01-10 05:02:00,28.0,22.0,30.05,South,180,7.0,12.0,78,0.00,,,0.00,1.000000,,2013-01-10 11:02:00,
2013-01-10 05:33:00,28.0,21.0,30.02,South,183,7.0,15.0,76,0.00,,,0.00,1.000000,,2013-01-10 11:33:00,
2013-01-10 05:43:00,28.0,21.0,30.02,South,183,7.0,15.0,76,0.00,,,0.00,1.000000,,2013-01-10 11:43:00,
2013-01-10 05:53:00,28.0,21.0,30.02,South,183,7.0,15.0,76,0.00,,,0.00,1.000000,,2013-01-10 11:53:00,
2013-01-10 06:03:00,28.0,21.0,30.02,South,183,7.0,15.0,76,0.00,,,0.00,1.000000,,2013-01-10 12:03:00,
2013-01-10 08:33:00,32.0,23.0,30.00,South,183,7.0,15.0,70,-99.99,,,0.00,1.000000,,2013-01-10 14:33:00,
2013-01-10 08:43:00,32.0,23.0,30.00,South,183,7.0,15.0,70,-99.99,,,0.00,1.000000,,2013-01-10 14:43:00,
2013-01-10 08:53:00,32.0,23.0,30.00,South,183,7.0,15.0,70,-99.99,,,0.00,1.000000,,2013-01-10 14:53:00,
2013-01-10 09:03:00,32.0,23.0,30.00,South,183,7.0,15.0,70,-99.99,,,0.00,1.000000,,2013-01-10 15:03:00,
2013-01-10 09:33:00,36.0,23.0,29.99,South,174,7.0,14.0,60,0.00,,,0.00,27.000000,,2013-01-10 15:33:00,
2013-01-10 09:43:00,36.0,23.0,29.99,South,174,7.0,14.0,60,0.00,,,0.00,27.000000,,2013-01-10 15:43:00,
2013-01-10 09:53:00,36.0,23.0,29.99,South,174,7.0,14.0,60,0.00,,,0.00,27.000000,,2013-01-10 15:53:00,
2013-01-10 10:02:00,36.0,23.0,29.99,South,174,7.0,14.0,60,0.00,,,0.00,27.000000,,2013-01-10 16:02:00,
2013-01-10 10:33:00,44.0,22.0,29.96,South,174,9.0,16.0,42,0.00,,,0.00,156.000000,,2013-01-10 16:33:00,
2013-01-10 10:43:00,44.0,22.0,29.96,South,174,9.0,16.0,42,0.00,,,0.00,156.000000,,2013-01-10 16:43:00,
2013-01-10 10:53:00,44.0,22.0,29.96,South,174,9.0,16.0,42,0.00,,,0.00,156.000000,,2013-01-10 16:53:00,
2013-01-10 11:03:00,44.0,22.0,29.96,South,174,9.0,16.0,42,0.00,,,0.00,156.000000,,2013-01-10 17:03:00,
2013-01-10 11:33:00,48.0,22.0,29.95,SSW,204,13.0,27.0,35,0.00,,,0.00,272.000000,,2013-01-10 17:33:00,
2013-01-10 11:43:00,48.0,22.0,29.95,SSW,204,13.0,27.0,35,0.00,,,0.00,272.000000,,2013-01-10 17:43:00,
2013-01-10 11:53:00,48.0,22.0,29.95,SSW,204,13.0,27.0,35,0.00,,,0.00,272.000000,,2013-01-10 17:53:00,
2013-01-10 12:03:00,48.0,22.0,29.95,SSW,204,13.0,27.0,35,0.00,,,0.00,272.000000,,2013-01-10 18:03:00,
2013-01-10 12:33:00,48.0,21.0,29.93,SSW,196,14.0,28.0,34,0.00,,,0.00,362.000000,,2013-01-10 18:33:00,
2013-01-10 12:43:00,48.0,21.0,29.93,SSW,196,14.0,28.0,34,0.00,,,0.00,362.000000,,2013-01-10 18:43:00,
2013-01-10 12:53:00,48.0,21.0,29.93,SSW,196,14.0,28.0,34,0.00,,,0.00,362.000000,,2013-01-10 18:53:00,
2013-01-10 13:03:00,48.0,21.0,29.93,SSW,196,14.0,28.0,34,0.00,,,0.00,362.000000,,2013-01-10 19:03:00,
2013-01-10 13:33:00,47.0,21.0,29.90,SSW,196,13.0,29.0,36,0.00,,,-99.99,380.000000,,2013-01-10 19:33:00,
2013-01-10 13:43:00,47.0,21.0,29.90,SSW,196,13.0,29.0,36,0.00,,,-99.99,380.000000,,2013-01-10 19:43:00,
2013-01-10 13:53:00,47.0,21.0,29.90,SSW,196,13.0,29.0,36,0.00,,,-99.99,380.000000,,2013-01-10 19:53:00,
2013-01-10 14:03:00,47.0,21.0,29.90,SSW,196,13.0,29.0,36,0.00,,,-99.99,380.000000,,2013-01-10 20:03:00,
2013-01-10 14:33:00,47.0,21.0,29.89,SSW,192,11.0,25.0,36,0.00,,,0.00,336.000000,,2013-01-10 20:33:00,
2013-01-10 14:43:00,47.0,21.0,29.89,SSW,192,11.0,25.0,36,0.00,,,0.00,336.000000,,2013-01-10 20:43:00,
2013-01-10 14:53:00,47.0,21.0,29.89,SSW,192,11.0,25.0,36,0.00,,,0.00,336.000000,,2013-01-10 20:53:00,
2013-01-10 15:03:00,47.0,21.0,29.89,SSW,192,11.0,25.0,36,0.00,,,0.00,336.000000,,2013-01-10 21:03:00,
2013-01-10 15:33:00,45.0,20.0,29.89,South,176,10.0,24.0,37,0.00,,,0.00,217.000000,,2013-01-10 21:33:00,
2013-01-10 15:43:00,45.0,20.0,29.89,South,176,10.0,24.0,37,0.00,,,0.00,217.000000,,2013-01-10 21:43:00,
2013-01-10 15:53:00,45.0,20.0,29.89,South,176,10.0,24.0,37,0.00,,,0.00,217.000000,,2013-01-10 21:53:00,
2013-01-10 16:03:00,45.0,20.0,29.89,South,176,10.0,24.0,37,0.00,,,0.00,217.000000,,2013-01-10 22:03:00,
2013-01-10 16:44:00,42.0,18.0,29.88,South,172,9.0,20.0,37,0.00,,,0.00,77.000000,,2013-01-10 22:44:00,
2013-01-10 17:02:00,42.0,18.0,29.88,South,172,9.0,20.0,37,0.00,,,0.00,77.000000,,2013-01-10 23:02:00,
2013-01-10 17:33:00,40.0,17.0,29.84,South,171,10.0,21.0,39,0.00,,,0.00,13.000000,,2013-01-10 23:33:00,
2013-01-10 17:43:00,40.0,17.0,29.84,South,171,10.0,21.0,39,0.00,,,0.00,13.000000,,2013-01-10 23:43:00,
2013-01-10 17:53:00,40.0,17.0,29.84,South,171,10.0,21.0,39,0.00,,,0.00,13.000000,,2013-01-10 23:53:00,
2013-01-10 18:03:00,40.0,17.0,29.84,South,171,10.0,21.0,39,0.00,,,0.00,13.000000,,2013-01-11 00:03:00,
2013-01-10 18:33:00,38.0,20.0,29.82,South,175,10.0,21.0,48,0.00,,,0.00,1.000000,,2013-01-11 00:33:00,
2013-01-10 18:43:00,38.0,20.0,29.82,South,175,10.0,21.0,48,0.00,,,0.00,1.000000,,2013-01-11 00:43:00,
2013-01-10 18:53:00,38.0,20.0,29.82,South,175,10.0,21.0,48,0.00,,,0.00,1.000000,,2013-01-11 00:53:00,
2013-01-10 19:03:00,38.0,20.0,29.82,South,175,10.0,21.0,48,0.00,,,0.00,1.000000,,2013-01-11 01:03:00,
2013-01-10 19:34:00,37.0,24.0,29.79,South,169,11.0,21.0,58,0.00,,,0.00,1.000000,,2013-01-11 01:34:00,
2013-01-10 19:43:00,37.0,24.0,29.79,South,169,11.0,21.0,58,0.00,,,0.00,1.000000,,2013-01-11 01:43:00,
2013-01-10 19:53:00,37.0,24.0,29.79,South,169,11.0,21.0,58,0.00,,,0.00,1.000000,,2013-01-11 01:53:00,
2013-01-10 20:03:00,37.0,24.0,29.79,South,169,11.0,21.0,58,0.00,,,0.00,1.000000,,2013-01-11 02:03:00,
2013-01-10 20:33:00,35.0,24.0,29.75,SSE,160,9.0,20.0,63,0.00,,,0.00,0.000000,,2013-01-11 02:33:00,
2013-01-10 20:43:00,35.0,24.0,29.75,SSE,160,9.0,20.0,63,0.00,,,0.00,0.000000,,2013-01-11 02:43:00,
2013-01-10 20:54:00,35.0,24.0,29.75,SSE,160,9.0,20.0,63,0.00,,,0.00,0.000000,,2013-01-11 02:54:00,
2013-01-10 21:02:00,35.0,24.0,29.75,SSE,160,9.0,20.0,63,0.00,,,0.00,0.000000,,2013-01-11 03:02:00,
2013-01-10 21:33:00,34.0,29.0,29.71,SSE,160,7.0,18.0,83,0.01,,,0.01,1.000000,,2013-01-11 03:33:00,
2013-01-10 21:43:00,34.0,29.0,29.71,SSE,160,7.0,18.0,83,0.01,,,0.01,1.000000,,2013-01-11 03:43:00,
2013-01-10 21:53:00,34.0,29.0,29.71,SSE,160,7.0,18.0,83,0.01,,,0.01,1.000000,,2013-01-11 03:53:00,
2013-01-10 22:02:00,34.0,29.0,29.71,SSE,160,7.0,18.0,83,0.01,,,0.01,1.000000,,2013-01-11 04:02:00,
2013-01-10 22:33:00,33.0,31.0,29.69,SSE,164,10.0,20.0,92,0.05,,,0.06,1.000000,,2013-01-11 04:33:00,
2013-01-10 22:43:00,33.0,31.0,29.69,SSE,164,10.0,20.0,92,0.05,,,0.06,1.000000,,2013-01-11 04:43:00,
2013-01-10 22:53:00,33.0,31.0,29.69,SSE,164,10.0,20.0,92,0.05,,,0.06,1.000000,,2013-01-11 04:53:00,
2013-01-10 23:03:00,33.0,31.0,29.69,SSE,164,10.0,20.0,92,0.05,,,0.06,1.000000,,2013-01-11 05:03:00,
2013-01-10 23:33:00,32.0,30.0,29.66,SSE,168,7.0,21.0,92,0.02,,,0.08,1.000000,,2013-01-11 05:33:00,
2013-01-10 23:43:00,32.0,30.0,29.66,SSE,168,7.0,21.0,92,0.02,,,0.08,1.000000,,2013-01-11 05:43:00,
2013-01-10 23:53:00,32.0,30.0,29.66,SSE,168,7.0,21.0,92,0.02,,,0.08,1.000000,,2013-01-11 05:53:00,